SCP
0 0 0 0 0 0 0 0 0 0 0 0 0 0 0 0 0 0 0 0 0 0 0 0 0 0 0 0 0 0 0 0 0 0 0 0 0 0 0 0 0 0 0 0
0 0 0 0 0 0 0 0 0 0 0 0 0 0 0 0 0 0 0 0 0 0 0 0 0 0 0 0 0 0 0 0 0 0 0 0 0 0 0 0 0 0 0 0
0 0 0 0 0 0 0 0 0 0 0 0 0 0 0 0 0 0 0 0 0 0 0 0 0 0 0 0 0 0 0 0 0 0 0 0 0 0 0 0 0 0 0 0
0 0 0 0 0 0 0 0 0 0 0 0 0 0 0 0 0 0 0 0 0 0 0 0 0 0 0 0 0 0 0 0 0 0 0 0 0 0 0 0 0 0 0 0
0 0 0 0 0 0 0 0 0 0 0 0 0 0 0 0 0 0 0 0 0 0 0 0 0 0 0 0 0 0 0 0 0 0 0 0 0 0 0 0 0 0 0 0
0 0 0 0 0 0 0 0 0 0 0 0 0 0 0 0 0 0 0 -0 0 0 0 0 0 0 0 0 0 0 0 0 0 0 0 0 0 0 0 0 0 0 0 0
0 0 0 0 0 0 0 0 0 0 0 0 0 0 0 0 0 0 0 0 0 0 0 0 0 0 0 0 0 0 0 0 0 0 0 0 0 0 0 0 0 0 0 0
0 0 0 0 0 0 0 0 0 0 0 0 0 0 0 0 0 0 0 0 0 0 0 0 0 0 0 0 0 0 0 0 0 0 0 0 0 0 0 0 0 0 0 0
0 0 0 0 0 0 0 0 0 0 0 0 0 0 0 0 0 0 0 0 0 0 0 0 0 0 0 0 0 0 0 0 0 0 0 0 0 0 0 0 0 0 0 0
0 0 0 0 0 0 0 0 0 0 0 0 0 0 0 0 0 0 0 0 0 0 0 0 0 0 0 0 0 0 0 0 0 0 0 0 0 0 0 0 0 0 0 0
0 0 0 0 0 0 0 0 0 0 0 0 0 0 0 0 0 0 0 0 0 0 0 0 0 0 0 0 0 0 0 0 0 0 0 0 0 0 0 0 0 0 0 0
0 0 0 0 0 0 0 0 0 0 0 0 0 0 0 0 0 0 0 0 0 0 0 0 0 0 0 0 0 0 0 0 0 0 0 0 0 0 0 0 0 0 0 0
0 0 0 0 0 0 0 0 0 0 0 0 0 0 0 0 0 0 0 0 0 0 0 0 0 0 0 0 0 0 0 0 0 0 0 0 0 0 0 0 0 0 0 0
0 0 0 0 0 0 0 0 0 0 0 0 0 0 0 0 0 0 0 0 0 0 0 0 0 0 0 0 0 0 0 0 0 0 0 0 0 0 0 0 0 0 0 0
0 0 0 0 0 0 0 0 0 0 0 0 0 0 0 0 0 0 0 0 0 0 0 0 0 0 0 0 0 0 0 0 0 0 0 0 0 0 0 0 0 0 0 0
0 0 0 0 0 0 0 0 0 0 0 0 0 0 0 0 0 0 0 0 0 0 0 0 0 0 0 0 0 0 0 0 0 0 0 0 0 0 0 0 0 0 0 0
0 0 0 0 0 0 0 0 0 0 0 0 0 0 0 0 0 0 0 0 0 0 0 0 0 0 0 0 0 0 0 0 0 0 0 0 0 0 0 0 0 0 0 0
0 0 0 0 0 0 0 0 0 0 0 0 0 0 0 0 0 0 0 0 0 0 0 0 0 0 0 0 0 0 0 0 0 0 0 0 0 0 0 0 0 0 0 0
0 0 0 0 0 0 0 0 0 0 0 0 0 0 0 0 0 0 0 0 0 0 0 0 0 0 0 0 0 0 0 0 0 0 0 0 0 0 0 0 0 0 0 0
0 0 0 0 0 0 0 0 0 0 0 0 0 0 0 0 0 0 0 0 0 0 0 0 0 0 0 0 0 0 0 0 0 0 0 0 0 0 0 0 0 0 0 0
0 0 0 0 0 0 0 0 0 0 0 0 0 0 0 0 0 0 0 0 0 0 0 0 0 0 0 0 0 0 0 0 0 0 0 0 0 0 0 0 0 0 0 0
0 0 0 0 0 0 0 0 0 0 0 0 0 0 0 0 0 0 0 0 0 0 0 0 0 0 0 0 0 0 0 0 0 0 0 0 0 0 0 0 0 0 0 0
0 0 0 0 0 0 0 0 0 0 0 0 0 0 0 0 0 0 0 0 0 0 0 0 0 0 0 0 0 0 0 0 0 0 0 0 0 0 0 0 0 0 0 0
0 0 0 0 0 0 0 0 0 0 0 0 0 0 0 0 0 0 0 0 0 0 0 0 0 0 0 0 0 0 0 0 0 0 0 0 0 0 0 0 0 0 0 0
0 0 0 0 0 0 0 0 0 0 0 0 0 0 0 0 0 0 0 0 0 0 0 0 0 0 0 0 0 0 0 0 0 0 0 0 0 0 0 0 0 0 0 0
0 0 0 0 0 0 0 0 0 0 0 0 0 0 0 0 0 0 0 0 0 0 0 0 0 0 0 0 0 0 0 0 0 0 0 0 0 0 0 0 0 0 0 0
0 0 0 0 0 0 0 0 0 0 0 0 0 0 0 0 0 0 0 0 0 0 0 0 0 0 0 0 0 0 0 0 0 0 0 0 0 0 0 0 0 0 0 0
Wind_Speed_500mb
10 18 25 27 38 44 46 59 30 53 49 47 35 34 48 60 41 56 75 59 51 52 49 40 38 45 55 57 62 63 64 64 64 63 63 64 68 78 74 84 70 57 65 66
5 8 15 10 37 55 61 53 46 45 46 30 32 34 46 55 56 51 61 62 59 52 44 45 45 42 51 58 59 61 61 60 58 57 57 59 68 75 83 77 63 66 67 62
11 5 12 12 47 47 49 48 58 40 59 9 7 34 40 46 57 60 72 69 62 47 40 38 44 44 49 54 54 55 55 54 52 52 57 60 67 75 79 79 67 69 67 63
8 7 17 9 12 47 53 44 53 41 35 22 33 42 55 67 54 58 65 68 61 58 52 48 42 40 44 51 53 55 52 53 54 56 60 64 74 83 79 69 68 71 69 64
11 16 12 9 6 18 26 38 40 47 45 59 56 41 78 56 61 65 61 60 53 50 44 37 34 34 38 48 55 55 56 56 59 60 68 69 75 80 75 73 72 72 67 63
7 15 21 6 19 28 17 20 25 54 41 41 20 15 26 16 15 13 16 20 22 24 30 31 30 32 34 45 58 58 58 57 59 64 69 72 75 77 76 73 76 74 69 64
17 14 10 8 10 28 21 6 7 8 16 23 15 21 5 2 9 17 16 18 21 21 21 24 26 31 35 40 50 55 55 57 60 64 69 73 77 79 80 80 79 75 71 67
13 19 33 22 21 27 9 11 10 8 7 10 18 10 8 8 6 9 13 16 20 23 20 20 21 24 27 32 35 43 53 58 62 64 68 75 79 81 82 83 80 77 75 72
26 16 3 48 13 21 19 16 13 16 17 15 16 11 7 4 5 8 16 19 22 23 21 14 12 15 17 16 21 29 41 51 62 67 72 75 80 84 86 86 86 83 79 76
8 10 11 46 22 27 22 21 21 17 12 13 16 15 10 7 12 17 18 17 17 19 18 16 14 11 11 14 19 24 30 35 46 62 73 77 82 86 88 91 91 87 83 78
3 4 13 21 29 33 32 28 27 24 19 16 12 11 9 9 10 12 17 18 18 18 19 18 16 18 17 17 19 22 26 30 36 47 62 75 86 91 94 93 90 87 83 75
12 31 12 21 40 36 34 32 28 25 24 20 15 14 13 13 13 13 15 16 17 17 15 15 15 15 16 18 20 21 23 27 33 40 49 63 77 88 92 91 87 84 74 66
10 39 21 42 43 37 35 31 29 26 21 20 18 14 12 14 14 13 12 13 14 17 18 17 16 17 17 16 17 19 21 24 28 34 41 50 62 77 90 92 91 79 71 66
44 51 36 39 25 36 33 34 31 29 28 25 22 21 18 16 16 15 14 15 16 16 16 17 18 18 18 18 18 17 17 18 24 30 36 42 51 62 74 88 84 79 73 69
23 15 36 44 44 42 39 41 40 37 32 27 23 19 18 15 12 13 13 11 10 12 14 16 18 19 20 21 20 18 20 22 24 28 31 36 43 52 62 71 78 75 71 74
41 48 49 49 51 49 45 40 37 32 24 21 17 13 10 7 5 5 5 6 6 10 14 18 21 23 24 26 27 26 25 25 24 27 30 34 39 45 53 63 75 78 76 75
44 37 45 51 49 43 36 31 28 25 19 15 11 10 7 5 3 1 4 7 11 13 16 20 23 25 27 29 31 33 33 32 31 28 29 31 36 41 46 55 66 72 79 77
23 34 34 41 43 39 33 27 22 17 14 11 10 9 8 7 3 2 5 7 10 12 15 18 21 24 26 29 31 32 32 33 34 33 32 33 35 38 41 47 58 71 77 78
31 36 39 37 34 29 26 22 20 19 18 17 14 9 7 6 7 6 7 8 8 10 14 18 23 26 29 31 33 35 35 36 36 35 36 37 39 42 44 47 53 60 64 70
32 33 32 29 26 23 22 22 20 18 16 16 13 10 7 4 3 4 7 11 14 17 20 22 25 28 31 34 37 39 40 40 41 41 41 41 42 43 46 51 57 62 65 69
24 27 26 26 24 24 23 23 21 18 15 12 8 4 5 7 9 11 15 18 21 22 25 29 32 35 38 40 42 44 45 46 47 47 47 46 46 46 48 49 51 55 59 63
21 22 22 22 22 21 21 19 16 13 9 7 8 10 12 15 19 21 24 26 29 31 33 36 41 44 48 51 53 53 54 54 55 55 55 54 54 54 53 52 52 54 55 56
17 17 17 16 15 15 14 12 10 10 12 13 15 17 20 23 25 27 31 32 35 38 41 44 48 52 53 55 56 57 58 58 59 59 59 58 57 55 55 54 53 53 53 53
9 9 10 10 11 11 11 12 14 15 18 20 23 24 27 30 34 35 36 39 43 45 46 46 45 45 44 46 49 52 55 57 58 58 56 55 53 52 51 51 51 50 50 49
5 6 6 6 9 11 15 16 18 20 24 28 30 31 32 33 34 34 36 38 40 41 40 40 38 37 37 39 40 42 45 47 50 52 50 49 48 47 47 47 47 47 46 44
6 6 7 7 9 13 16 19 21 24 26 29 32 34 37 38 38 38 39 38 37 36 36 34 33 33 34 35 36 36 37 39 40 41 42 41 41 40 40 39 40 39 40 40
11 13 16 19 21 23 26 28 29 32 36 36 35 36 36 39 40 41 41 40 39 38 37 36 34 32 32 31 31 32 34 35 35 35 35 36 37 36 35 35 35 35 37 37
Wind_Direction_500mb
173 156 171 184 191 190 205 223 209 235 240 251 258 276 287 295 286 295 294 295 305 307 310 293 272 247 236 224 229 233 238 242 244 241 235 228 222 223 214 222 212 228 219 209
118 148 174 168 197 197 209 219 233 249 267 274 260 252 262 265 278 279 281 292 301 296 293 285 275 256 243 234 231 236 239 241 239 232 228 222 216 212 225 208 213 219 212 210
165 105 116 288 213 200 215 211 222 224 239 272 274 236 245 258 266 271 282 291 299 288 277 294 283 262 248 243 241 238 239 236 231 225 221 218 219 211 217 210 214 211 210 211
113 131 214 284 205 197 207 214 220 243 248 238 247 249 258 263 263 274 280 290 292 293 296 289 287 275 252 248 247 245 239 235 228 221 221 218 219 213 210 212 215 210 213 213
149 207 292 268 164 169 187 239 225 237 251 251 253 271 272 269 273 281 284 284 287 288 292 294 287 275 260 249 245 245 243 237 231 223 219 219 220 213 214 217 215 212 216 217
144 210 228 148 185 181 172 265 200 216 234 243 224 253 271 256 275 286 312 316 318 299 286 287 288 281 265 249 245 246 244 242 236 229 223 223 222 221 220 218 216 215 217 218
204 225 267 228 179 155 188 247 134 163 244 197 197 227 223 295 312 328 346 345 337 327 313 296 283 278 272 263 255 253 249 246 240 235 230 225 225 223 222 217 216 218 219 220
200 224 242 172 161 188 172 146 168 161 139 190 230 215 252 296 320 15 22 10 352 340 326 302 289 280 277 277 277 264 255 249 245 240 235 228 224 222 219 219 219 220 220 221
194 207 131 173 179 177 158 164 177 166 155 140 132 140 134 106 61 44 26 9 355 338 332 324 301 286 283 281 265 265 260 253 249 245 239 232 227 224 221 220 221 223 223 224
146 201 172 182 177 178 166 169 164 168 153 152 151 141 129 70 35 13 22 16 4 345 333 328 316 293 276 274 271 268 266 259 252 246 242 236 232 229 228 227 226 226 227 227
118 93 108 192 193 180 168 162 155 154 155 146 139 119 100 80 49 26 20 8 7 354 338 330 321 304 290 271 265 267 266 263 258 252 247 242 238 234 233 234 236 237 236 233
209 179 159 181 182 172 165 158 156 158 144 134 128 118 102 93 79 56 38 21 10 5 356 339 326 307 290 277 263 258 263 266 264 260 255 248 243 240 238 239 240 240 238 238
163 151 148 151 162 165 162 158 160 157 149 149 139 132 116 101 88 67 50 37 28 23 16 6 349 332 321 311 298 287 277 267 264 264 262 258 252 246 241 240 237 235 234 230
137 131 109 134 150 160 164 155 153 149 142 138 134 129 120 107 101 97 85 67 49 35 23 18 13 2 353 341 328 314 296 282 276 272 267 262 258 255 249 245 241 240 238 235
130 129 144 138 141 144 146 142 137 131 129 129 127 125 117 110 100 82 73 66 46 26 9 6 3 2 1 353 343 329 313 299 286 276 271 272 271 264 254 249 240 240 239 238
125 128 136 137 137 140 144 146 145 138 139 136 137 136 127 109 70 39 13 1 342 346 357 352 349 349 349 348 344 338 330 320 305 294 285 281 276 269 260 246 234 235 237 236
132 125 139 139 146 147 148 146 143 143 143 143 149 141 134 132 115 24 346 356 0 360 357 351 348 349 348 345 342 340 337 331 323 307 294 284 279 277 273 256 240 240 246 247
134 144 150 150 147 146 144 143 145 148 152 153 152 147 148 145 168 63 24 15 2 359 352 349 350 349 348 346 342 338 333 326 321 314 303 290 282 275 270 264 253 253 258 257
126 133 139 146 147 148 148 150 151 152 150 149 150 157 149 123 101 73 48 26 358 346 345 344 342 338 337 336 333 331 329 325 320 315 308 300 288 278 271 266 263 262 264 264
126 130 136 145 149 151 150 149 147 144 144 138 138 131 111 80 41 347 329 320 323 328 329 331 330 329 329 329 328 326 323 320 316 311 307 302 295 288 279 273 268 266 265 266
129 132 137 142 146 146 147 148 146 146 148 151 156 190 248 276 293 302 307 312 311 313 315 316 316 316 316 315 314 312 310 308 307 305 302 298 295 290 287 283 279 275 272 270
128 128 136 141 143 150 152 157 161 165 182 214 244 264 279 290 294 297 296 294 297 298 301 304 305 305 305 304 302 301 299 297 295 292 290 288 287 285 283 282 280 279 278 276
126 129 134 145 157 167 172 182 199 225 244 257 265 270 276 279 280 283 286 287 290 293 297 300 301 303 304 305 304 302 298 295 292 289 287 285 284 283 283 282 282 281 281 280
135 148 152 168 189 210 229 245 253 260 262 265 270 273 278 282 286 288 288 290 293 297 299 300 300 303 307 310 310 307 305 301 297 294 292 291 290 289 288 287 287 286 285 283
191 203 207 226 238 249 261 268 275 278 278 281 284 285 285 286 286 286 286 289 292 295 297 299 302 309 313 313 313 313 311 307 302 297 294 292 291 291 291 291 291 291 290 289
310 295 285 278 272 274 277 279 279 279 280 281 284 284 285 285 286 288 289 290 290 291 294 297 303 308 310 313 315 314 313 311 308 305 301 299 297 297 297 295 294 292 290 289
306 309 311 313 311 309 307 305 305 302 299 298 294 293 290 289 290 289 288 287 286 287 290 292 294 296 298 302 304 306 307 306 303 302 302 301 300 298 295 293 291 290 290 289
Wind_Speed_850mb
10 18 25 27 38 44 46 59 30 53 49 47 35 34 48 60 41 56 75 59 51 52 49 40 38 45 55 57 62 63 64 64 64 63 63 64 68 78 74 84 70 57 65 66
5 8 15 10 37 55 61 53 46 45 46 30 32 34 46 55 56 51 61 62 59 52 44 45 45 42 51 58 59 61 61 60 58 57 57 59 68 75 83 77 63 66 67 62
11 5 12 12 47 47 49 48 58 40 59 9 7 34 40 46 57 60 72 69 62 47 40 38 44 44 49 54 54 55 55 54 52 52 57 60 67 75 79 79 67 69 67 63
8 7 17 9 12 47 53 44 53 41 35 22 33 42 55 67 54 58 65 68 61 58 52 48 42 40 44 51 53 55 52 53 54 56 60 64 74 83 79 69 68 71 69 64
11 16 12 9 6 18 26 38 40 47 45 59 56 41 78 56 61 65 61 60 53 50 44 37 34 34 38 48 55 55 56 56 59 60 68 69 75 80 75 73 72 72 67 63
7 15 21 6 19 28 17 20 25 54 41 41 20 15 26 16 15 13 16 20 22 24 30 31 30 32 34 45 58 58 58 57 59 64 69 72 75 77 76 73 76 74 69 64
17 14 10 8 10 28 21 6 7 8 16 23 15 21 5 2 9 17 16 18 21 21 21 24 26 31 35 40 50 55 55 57 60 64 69 73 77 79 80 80 79 75 71 67
13 19 33 22 21 27 9 11 10 8 7 10 18 10 8 8 6 9 13 16 20 23 20 20 21 24 27 32 35 43 53 58 62 64 68 75 79 81 82 83 80 77 75 72
26 16 3 48 13 21 19 16 13 16 17 15 16 11 7 4 5 8 16 19 22 23 21 14 12 15 17 16 21 29 41 51 62 67 72 75 80 84 86 86 86 83 79 76
8 10 11 46 22 27 22 21 21 17 12 13 16 15 10 7 12 17 18 17 17 19 18 16 14 11 11 14 19 24 30 35 46 62 73 77 82 86 88 91 91 87 83 78
3 4 13 21 29 33 32 28 27 24 19 16 12 11 9 9 10 12 17 18 18 18 19 18 16 18 17 17 19 22 26 30 36 47 62 75 86 91 94 93 90 87 83 75
12 31 12 21 40 36 34 32 28 25 24 20 15 14 13 13 13 13 15 16 17 17 15 15 15 15 16 18 20 21 23 27 33 40 49 63 77 88 92 91 87 84 74 66
10 39 21 42 43 37 35 31 29 26 21 20 18 14 12 14 14 13 12 13 14 17 18 17 16 17 17 16 17 19 21 24 28 34 41 50 62 77 90 92 91 79 71 66
44 51 36 39 25 36 33 34 31 29 28 25 22 21 18 16 16 15 14 15 16 16 16 17 18 18 18 18 18 17 17 18 24 30 36 42 51 62 74 88 84 79 73 69
23 15 36 44 44 42 39 41 40 37 32 27 23 19 18 15 12 13 13 11 10 12 14 16 18 19 20 21 20 18 20 22 24 28 31 36 43 52 62 71 78 75 71 74
41 48 49 49 51 49 45 40 37 32 24 21 17 13 10 7 5 5 5 6 6 10 14 18 21 23 24 26 27 26 25 25 24 27 30 34 39 45 53 63 75 78 76 75
44 37 45 51 49 43 36 31 28 25 19 15 11 10 7 5 3 1 4 7 11 13 16 20 23 25 27 29 31 33 33 32 31 28 29 31 36 41 46 55 66 72 79 77
23 34 34 41 43 39 33 27 22 17 14 11 10 9 8 7 3 2 5 7 10 12 15 18 21 24 26 29 31 32 32 33 34 33 32 33 35 38 41 47 58 71 77 78
31 36 39 37 34 29 26 22 20 19 18 17 14 9 7 6 7 6 7 8 8 10 14 18 23 26 29 31 33 35 35 36 36 35 36 37 39 42 44 47 53 60 64 70
32 33 32 29 26 23 22 22 20 18 16 16 13 10 7 4 3 4 7 11 14 17 20 22 25 28 31 34 37 39 40 40 41 41 41 41 42 43 46 51 57 62 65 69
24 27 26 26 24 24 23 23 21 18 15 12 8 4 5 7 9 11 15 18 21 22 25 29 32 35 38 40 42 44 45 46 47 47 47 46 46 46 48 49 51 55 59 63
21 22 22 22 22 21 21 19 16 13 9 7 8 10 12 15 19 21 24 26 29 31 33 36 41 44 48 51 53 53 54 54 55 55 55 54 54 54 53 52 52 54 55 56
17 17 17 16 15 15 14 12 10 10 12 13 15 17 20 23 25 27 31 32 35 38 41 44 48 52 53 55 56 57 58 58 59 59 59 58 57 55 55 54 53 53 53 53
9 9 10 10 11 11 11 12 14 15 18 20 23 24 27 30 34 35 36 39 43 45 46 46 45 45 44 46 49 52 55 57 58 58 56 55 53 52 51 51 51 50 50 49
5 6 6 6 9 11 15 16 18 20 24 28 30 31 32 33 34 34 36 38 40 41 40 40 38 37 37 39 40 42 45 47 50 52 50 49 48 47 47 47 47 47 46 44
6 6 7 7 9 13 16 19 21 24 26 29 32 34 37 38 38 38 39 38 37 36 36 34 33 33 34 35 36 36 37 39 40 41 42 41 41 40 40 39 40 39 40 40
11 13 16 19 21 23 26 28 29 32 36 36 35 36 36 39 40 41 41 40 39 38 37 36 34 32 32 31 31 32 34 35 35 35 35 36 37 36 35 35 35 35 37 37
Wind_Direction_850mb
173 156 171 184 191 190 205 223 209 235 240 251 258 276 287 295 286 295 294 295 305 307 310 293 272 247 236 224 229 233 238 242 244 241 235 228 222 223 214 222 212 228 219 209
118 148 174 168 197 197 209 219 233 249 267 274 260 252 262 265 278 279 281 292 301 296 293 285 275 256 243 234 231 236 239 241 239 232 228 222 216 212 225 208 213 219 212 210
165 105 116 288 213 200 215 211 222 224 239 272 274 236 245 258 266 271 282 291 299 288 277 294 283 262 248 243 241 238 239 236 231 225 221 218 219 211 217 210 214 211 210 211
113 131 214 284 205 197 207 214 220 243 248 238 247 249 258 263 263 274 280 290 292 293 296 289 287 275 252 248 247 245 239 235 228 221 221 218 219 213 210 212 215 210 213 213
149 207 292 268 164 169 187 239 225 237 251 251 253 271 272 269 273 281 284 284 287 288 292 294 287 275 260 249 245 245 243 237 231 223 219 219 220 213 214 217 215 212 216 217
144 210 228 148 185 181 172 265 200 216 234 243 224 253 271 256 275 286 312 316 318 299 286 287 288 281 265 249 245 246 244 242 236 229 223 223 222 221 220 218 216 215 217 218
204 225 267 228 179 155 188 247 134 163 244 197 197 227 223 295 312 328 346 345 337 327 313 296 283 278 272 263 255 253 249 246 240 235 230 225 225 223 222 217 216 218 219 220
200 224 242 172 161 188 172 146 168 161 139 190 230 215 252 296 320 15 22 10 352 340 326 302 289 280 277 277 277 264 255 249 245 240 235 228 224 222 219 219 219 220 220 221
194 207 131 173 179 177 158 164 177 166 155 140 132 140 134 106 61 44 26 9 355 338 332 324 301 286 283 281 265 265 260 253 249 245 239 232 227 224 221 220 221 223 223 224
146 201 172 182 177 178 166 169 164 168 153 152 151 141 129 70 35 13 22 16 4 345 333 328 316 293 276 274 271 268 266 259 252 246 242 236 232 229 228 227 226 226 227 227
118 93 108 192 193 180 168 162 155 154 155 146 139 119 100 80 49 26 20 8 7 354 338 330 321 304 290 271 265 267 266 263 258 252 247 242 238 234 233 234 236 237 236 233
209 179 159 181 182 172 165 158 156 158 144 134 128 118 102 93 79 56 38 21 10 5 356 339 326 307 290 277 263 258 263 266 264 260 255 248 243 240 238 239 240 240 238 238
163 151 148 151 162 165 162 158 160 157 149 149 139 132 116 101 88 67 50 37 28 23 16 6 349 332 321 311 298 287 277 267 264 264 262 258 252 246 241 240 237 235 234 230
137 131 109 134 150 160 164 155 153 149 142 138 134 129 120 107 101 97 85 67 49 35 23 18 13 2 353 341 328 314 296 282 276 272 267 262 258 255 249 245 241 240 238 235
130 129 144 138 141 144 146 142 137 131 129 129 127 125 117 110 100 82 73 66 46 26 9 6 3 2 1 353 343 329 313 299 286 276 271 272 271 264 254 249 240 240 239 238
125 128 136 137 137 140 144 146 145 138 139 136 137 136 127 109 70 39 13 1 342 346 357 352 349 349 349 348 344 338 330 320 305 294 285 281 276 269 260 246 234 235 237 236
132 125 139 139 146 147 148 146 143 143 143 143 149 141 134 132 115 24 346 356 0 360 357 351 348 349 348 345 342 340 337 331 323 307 294 284 279 277 273 256 240 240 246 247
134 144 150 150 147 146 144 143 145 148 152 153 152 147 148 145 168 63 24 15 2 359 352 349 350 349 348 346 342 338 333 326 321 314 303 290 282 275 270 264 253 253 258 257
126 133 139 146 147 148 148 150 151 152 150 149 150 157 149 123 101 73 48 26 358 346 345 344 342 338 337 336 333 331 329 325 320 315 308 300 288 278 271 266 263 262 264 264
126 130 136 145 149 151 150 149 147 144 144 138 138 131 111 80 41 347 329 320 323 328 329 331 330 329 329 329 328 326 323 320 316 311 307 302 295 288 279 273 268 266 265 266
129 132 137 142 146 146 147 148 146 146 148 151 156 190 248 276 293 302 307 312 311 313 315 316 316 316 316 315 314 312 310 308 307 305 302 298 295 290 287 283 279 275 272 270
128 128 136 141 143 150 152 157 161 165 182 214 244 264 279 290 294 297 296 294 297 298 301 304 305 305 305 304 302 301 299 297 295 292 290 288 287 285 283 282 280 279 278 276
126 129 134 145 157 167 172 182 199 225 244 257 265 270 276 279 280 283 286 287 290 293 297 300 301 303 304 305 304 302 298 295 292 289 287 285 284 283 283 282 282 281 281 280
135 148 152 168 189 210 229 245 253 260 262 265 270 273 278 282 286 288 288 290 293 297 299 300 300 303 307 310 310 307 305 301 297 294 292 291 290 289 288 287 287 286 285 283
191 203 207 226 238 249 261 268 275 278 278 281 284 285 285 286 286 286 286 289 292 295 297 299 302 309 313 313 313 313 311 307 302 297 294 292 291 291 291 291 291 291 290 289
310 295 285 278 272 274 277 279 279 279 280 281 284 284 285 285 286 288 289 290 290 291 294 297 303 308 310 313 315 314 313 311 308 305 301 299 297 297 297 295 294 292 290 289
306 309 311 313 311 309 307 305 305 302 299 298 294 293 290 289 290 289 288 287 286 287 290 292 294 296 298 302 304 306 307 306 303 302 302 301 300 298 295 293 291 290 290 289